Total_Precipitation_Accumulation
1.88 2.10 2.39 2.86 3.63 4.37 5.04 5.14 5.32 4.79 4.12 3.54 3.08 2.97 2.78 2.49 2.43 2.32 2.13 1.98 1.78 1.69 1.80 1.63 1.57 1.47 1.53 1.54 1.64 1.76 1.78 1.53 1.70 2.02 1.66 1.16 0.87 0.80 0.73 0.66 0.67 0.68 0.73
1.97 2.34 2.87 3.23 3.25 3.76 4.46 4.51 4.16 3.89 3.41 3.00 2.79 2.62 2.54 2.25 2.09 1.96 1.93 1.75 1.61 1.57 1.55 1.55 1.40 1.37 1.44 1.42 1.49 1.61 1.58 1.41 1.62 1.95 2.03 1.58 1.22 0.94 0.66 0.63 0.62 0.69 0.82
1.86 2.29 2.70 3.10 3.07 3.43 3.53 3.15 2.94 2.96 2.87 2.68 2.55 2.43 2.38 2.19 1.91 1.70 1.67 1.58 1.41 1.36 1.31 1.27 1.28 1.34 1.22 1.27 1.37 1.52 1.65 1.51 1.42 1.67 1.96 1.73 1.40 1.13 0.85 0.75 0.85 0.97 1.06
1.32 1.59 1.93 2.35 2.54 2.62 2.54 2.47 2.41 2.38 2.55 2.55 2.31 2.10 1.78 1.64 1.55 1.45 1.47 1.50 1.34 1.27 1.21 1.17 1.26 1.29 1.24 1.35 1.17 1.25 1.49 1.61 1.42 1.41 1.46 1.47 1.56 1.56 1.21 0.89 0.82 0.95 1.04
0.97 1.12 1.24 1.45 1.73 1.97 2.02 1.98 2.20 2.28 2.27 2.24 2.18 2.14 1.87 1.67 1.58 1.66 1.82 1.72 1.46 1.23 1.10 1.11 1.20 1.26 1.25 1.29 1.27 1.34 1.30 1.36 1.32 1.31 1.31 1.39 1.52 1.47 1.41 1.18 0.97 0.95 0.85
0.75 0.92 0.98 1.03 1.16 1.31 1.41 1.51 1.74 1.94 1.98 1.93 1.93 1.96 1.92 1.82 1.59 1.51 1.57 1.51 1.37 1.20 1.07 1.09 1.22 1.23 1.20 1.21 1.22 1.23 1.19 1.24 1.27 1.27 1.30 1.39 1.38 1.31 1.43 1.32 1.12 1.05 0.88
0.55 0.66 0.72 0.81 0.91 0.93 0.99 1.14 1.33 1.48 1.61 1.66 1.69 1.75 1.90 1.80 1.55 1.37 1.37 1.32 1.17 1.06 1.03 1.02 1.22 1.32 1.29 1.25 1.28 1.28 1.28 1.33 1.34 1.29 1.31 1.36 1.33 1.35 1.49 1.47 1.23 1.15 1.08
0.46 0.45 0.50 0.55 0.69 0.74 0.79 0.89 0.97 1.06 1.20 1.42 1.60 1.57 1.65 1.51 1.38 1.47 1.36 1.20 1.00 1.00 1.17 1.25 1.29 1.30 1.33 1.33 1.49 1.40 1.38 1.45 1.46 1.37 1.56 1.54 1.40 1.56 1.69 1.77 1.78 1.58 1.47
0.44 0.40 0.39 0.43 0.46 0.51 0.57 0.65 0.82 0.98 1.05 1.15 1.37 1.46 1.40 1.37 1.42 1.52 1.44 1.29 1.17 1.06 1.19 1.30 1.39 1.36 1.34 1.40 1.57 1.56 1.58 1.65 1.60 1.59 1.75 1.73 1.63 1.64 1.63 1.82 2.02 2.08 1.91
0.47 0.51 0.38 0.37 0.40 0.39 0.47 0.58 0.73 0.93 1.11 1.12 1.11 1.15 1.34 1.39 1.47 1.47 1.31 1.24 1.19 1.15 1.17 1.16 1.24 1.24 1.24 1.36 1.59 1.62 1.69 1.83 1.81 1.78 1.82 1.81 1.76 1.81 1.77 1.83 2.04 2.21 2.20
0.44 0.47 0.35 0.30 0.34 0.38 0.45 0.56 0.68 0.94 1.13 1.05 1.07 1.16 1.30 1.35 1.36 1.47 1.44 1.32 1.24 1.21 1.16 1.12 1.14 1.13 1.10 1.20 1.37 1.51 1.70 1.83 1.88 1.85 1.87 1.86 1.94 1.97 1.86 1.91 1.96 2.10 2.26
0.46 0.48 0.43 0.45 0.47 0.50 0.54 0.64 0.71 0.85 0.97 1.02 1.10 1.16 1.25 1.27 1.22 1.26 1.34 1.38 1.28 1.20 1.20 1.23 1.19 1.08 1.07 1.17 1.31 1.48 1.66 1.82 1.92 1.99 2.03 1.87 1.93 2.03 1.99 1.97 1.97 2.04 2.27
0.58 0.55 0.57 0.62 0.57 0.56 0.67 0.75 0.82 0.85 0.95 1.13 1.13 1.09 1.12 1.06 1.05 1.10 1.16 1.24 1.28 1.28 1.28 1.30 1.27 1.25 1.31 1.42 1.48 1.54 1.67 1.82 1.91 1.98 1.95 1.93 2.03 1.96 1.98 2.02 2.00 1.99 1.99
0.56 0.50 0.52 0.54 0.56 0.60 0.66 0.75 0.83 0.87 0.96 0.98 0.99 1.00 0.99 0.99 1.05 1.10 1.12 1.14 1.15 1.23 1.27 1.27 1.35 1.41 1.48 1.51 1.52 1.51 1.55 1.65 1.74 1.74 1.65 1.60 1.66 1.73 1.82 1.81 1.81 1.86 1.92
0.53 0.43 0.38 0.48 0.60 0.66 0.67 0.72 0.80 0.89 1.02 1.03 0.98 0.97 0.99 1.00 1.01 1.01 1.03 1.05 1.11 1.14 1.31 1.35 1.46 1.54 1.52 1.43 1.48 1.48 1.42 1.58 1.55 1.43 1.39 1.40 1.49 1.50 1.55 1.49 1.54 1.68 1.76
0.53 0.50 0.48 0.55 0.60 0.61 0.61 0.59 0.62 0.74 0.91 0.97 1.02 1.03 1.04 0.97 1.00 1.02 1.01 1.04 1.13 1.25 1.36 1.40 1.52 1.56 1.43 1.49 1.53 1.53 1.50 1.54 1.51 1.44 1.39 1.28 1.27 1.25 1.29 1.34 1.39 1.51 1.61
0.47 0.53 0.56 0.59 0.59 0.59 0.55 0.54 0.54 0.66 0.92 1.01 0.98 1.07 1.15 1.07 1.13 1.17 1.16 1.18 1.25 1.35 1.41 1.52 1.56 1.57 1.62 1.56 1.45 1.47 1.41 1.46 1.51 1.53 1.54 1.29 1.13 1.19 1.18 1.31 1.29 1.26 1.31
0.44 0.52 0.53 0.53 0.56 0.56 0.56 0.53 0.54 0.62 0.83 0.99 1.03 1.21 1.35 1.25 1.27 1.29 1.31 1.38 1.44 1.48 1.58 1.63 1.57 1.58 1.62 1.54 1.31 1.24 1.15 1.23 1.34 1.43 1.48 1.47 1.37 1.33 1.35 1.40 1.38 1.29 1.26
0.53 0.52 0.55 0.57 0.62 0.67 0.65 0.62 0.72 0.83 0.95 1.07 1.18 1.37 1.52 1.58 1.56 1.52 1.61 1.66 1.69 1.74 1.81 1.88 1.85 1.76 1.73 1.54 1.22 1.11 1.05 1.17 1.22 1.24 1.26 1.25 1.17 1.17 1.10 1.15 1.22 1.24 1.23
0.58 0.62 0.69 0.69 0.69 0.76 0.77 0.79 0.88 1.06 1.19 1.21 1.24 1.33 1.50 1.60 1.64 1.65 1.80 1.95 1.99 1.99 2.02 1.93 1.80 1.71 1.69 1.61 1.29 1.13 1.10 1.23 1.27 1.34 1.33 1.31 1.25 1.20 1.06 1.04 1.11 1.10 1.12
0.55 0.58 0.62 0.68 0.72 0.78 0.85 0.96 1.03 1.13 1.15 1.16 1.19 1.26 1.49 1.76 1.80 1.86 1.94 2.05 2.12 2.17 2.18 2.08 1.98 1.85 1.80 1.75 1.42 1.25 1.20 1.30 1.36 1.31 1.31 1.29 1.26 1.06 0.94 0.92 0.97 0.99 1.00
0.59 0.60 0.59 0.65 0.73 0.84 0.99 1.06 1.08 1.10 1.15 1.16 1.21 1.34 1.59 1.69 1.79 1.94 2.00 2.14 2.26 2.27 2.24 2.23 2.10 2.03 1.94 1.69 1.41 1.22 1.21 1.32 1.42 1.43 1.39 1.35 1.21 0.98 0.85 0.75 0.72 0.76 0.76
0.64 0.72 0.71 0.71 0.77 0.88 1.08 1.21 1.18 1.17 1.16 1.14 1.19 1.29 1.43 1.53 1.66 1.74 1.73 1.82 1.94 1.97 2.00 2.03 1.98 1.99 2.08 1.95 1.53 1.24 1.17 1.26 1.37 1.51 1.58 1.39 1.20 1.05 0.91 0.85 0.76 0.69 0.66
0.76 0.75 0.74 0.76 0.79 0.84 1.03 1.16 1.16 1.16 1.16 1.11 1.08 1.17 1.34 1.41 1.49 1.61 1.63 1.72 1.80 1.85 1.92 1.94 1.89 1.90 2.04 2.04 1.74 1.43 1.25 1.17 1.16 1.21 1.24 1.16 1.10 0.99 0.88 0.80 0.71 0.63 0.66
0.66 0.65 0.66 0.71 0.73 0.79 0.97 1.11 1.13 1.14 1.17 1.13 1.08 1.15 1.25 1.35 1.43 1.55 1.64 1.66 1.69 1.68 1.70 1.74 1.71 1.71 1.83 1.82 1.60 1.39 1.25 1.15 1.14 1.16 1.21 1.20 1.19 1.08 0.99 0.91 0.86 0.85 0.86
0.61 0.64 0.68 0.68 0.65 0.71 0.82 0.93 1.10 1.25 1.28 1.20 1.12 1.10 1.11 1.19 1.27 1.35 1.36 1.29 1.27 1.26 1.24 1.28 1.21 1.20 1.36 1.37 1.14 1.00 1.03 1.04 1.02 1.04 1.12 1.19 1.23 1.18 1.11 1.06 1.00 1.00 0.98